Time,TemperatureF,DewpointF,PressureIn,WindDirection,WindDirectionDegrees,WindSpeedMPH,WindSpeedGustMPH,Humidity,HourlyPrecipIn,Conditions,Clouds,dailyrainin,SoftwareType,DateUTC
2013-05-17 00:03:00,68.2,52.8,29.91,ENE,74,0.0,0.0,58,0.00,,,0.00,WeatherDisplay:10.36,2013-05-17 05:03:00,
2013-05-17 00:08:00,68.0,52.7,29.88,East,79,0.0,0.0,58,0.00,,,0.00,WeatherDisplay:10.36,2013-05-17 05:08:00,
2013-05-17 00:13:00,67.8,52.5,29.88,ENE,73,0.0,0.0,58,0.00,,,0.00,WeatherDisplay:10.36,2013-05-17 05:13:00,
2013-05-17 00:18:00,67.6,52.3,29.88,ESE,105,0.0,0.0,58,0.00,,,0.00,WeatherDisplay:10.36,2013-05-17 05:18:00,
2013-05-17 00:23:00,67.6,51.9,29.91,East,85,0.0,0.0,57,0.00,,,0.00,WeatherDisplay:10.36,2013-05-17 05:23:00,
2013-05-17 00:28:00,67.5,51.7,29.91,NE,49,0.0,0.0,57,0.00,,,0.00,WeatherDisplay:10.36,2013-05-17 05:28:00,
2013-05-17 00:33:00,67.5,51.2,29.91,NE,46,3.5,0.0,56,0.00,,,0.00,WeatherDisplay:10.36,2013-05-17 05:33:00,
2013-05-17 00:38:00,67.3,51.0,29.91,NE,46,0.0,0.0,56,0.00,,,0.00,WeatherDisplay:10.36,2013-05-17 05:38:00,
2013-05-17 00:43:00,67.3,50.6,29.91,ENE,64,0.0,0.0,55,0.00,,,0.00,WeatherDisplay:10.36,2013-05-17 05:43:00,
2013-05-17 00:48:00,67.1,50.4,29.91,NE,47,0.0,0.0,55,0.00,,,0.00,WeatherDisplay:10.36,2013-05-17 05:48:00,
2013-05-17 00:53:00,67.1,50.4,29.88,East,92,0.0,0.0,55,0.00,,,0.00,WeatherDisplay:10.36,2013-05-17 05:53:00,
2013-05-17 00:58:00,66.9,50.2,29.88,East,95,0.0,0.0,55,0.00,,,0.00,WeatherDisplay:10.36,2013-05-17 05:58:00,
2013-05-17 01:03:00,66.9,49.7,29.88,East,83,0.0,0.0,54,0.00,,,0.00,WeatherDisplay:10.36,2013-05-17 06:03:00,
2013-05-17 01:08:00,66.7,49.6,29.91,East,85,0.0,0.0,54,0.00,,,0.00,WeatherDisplay:10.36,2013-05-17 06:08:00,
2013-05-17 01:13:00,66.7,50.1,29.91,ENE,63,0.0,0.0,55,0.00,,,0.00,WeatherDisplay:10.36,2013-05-17 06:13:00,
2013-05-17 01:18:00,66.6,49.9,29.91,NE,55,0.0,0.0,55,0.00,,,0.00,WeatherDisplay:10.36,2013-05-17 06:18:00,
2013-05-17 01:23:00,66.4,50.2,29.91,ENE,59,0.0,0.0,56,0.00,,,0.00,WeatherDisplay:10.36,2013-05-17 06:23:00,
2013-05-17 01:28:00,66.0,49.9,29.91,ENE,70,0.0,0.0,56,0.00,,,0.00,WeatherDisplay:10.36,2013-05-17 06:28:00,
2013-05-17 01:33:00,66.0,49.9,29.91,NE,55,0.0,0.0,56,0.00,,,0.00,WeatherDisplay:10.36,2013-05-17 06:33:00,
2013-05-17 01:38:00,66.0,50.3,29.91,NE,55,0.0,0.0,57,0.00,,,0.00,WeatherDisplay:10.36,2013-05-17 06:38:00,
2013-05-17 01:43:00,65.8,50.2,29.91,NE,51,0.0,0.0,57,0.00,,,0.00,WeatherDisplay:10.36,2013-05-17 06:43:00,
2013-05-17 01:48:00,65.8,50.2,29.91,ENE,68,0.0,0.0,57,0.00,,,0.00,WeatherDisplay:10.36,2013-05-17 06:48:00,
2013-05-17 01:53:00,65.8,49.7,29.91,ENE,62,0.0,0.0,56,0.00,,,0.00,WeatherDisplay:10.36,2013-05-17 06:53:00,
2013-05-17 01:58:00,65.8,49.7,29.91,ENE,61,0.0,0.0,56,0.00,,,0.00,WeatherDisplay:10.36,2013-05-17 06:58:00,
2013-05-17 02:03:00,65.7,49.5,29.91,ENE,61,0.0,0.0,56,0.00,,,0.00,WeatherDisplay:10.36,2013-05-17 07:03:00,
2013-05-17 02:08:00,65.7,49.0,29.91,ENE,58,0.0,0.0,55,0.00,,,0.00,WeatherDisplay:10.36,2013-05-17 07:08:00,
2013-05-17 02:13:00,65.7,49.0,29.91,ENE,59,0.0,0.0,55,0.00,,,0.00,WeatherDisplay:10.36,2013-05-17 07:13:00,
2013-05-17 02:18:00,65.7,49.0,29.91,East,88,0.0,0.0,55,0.00,,,0.00,WeatherDisplay:10.36,2013-05-17 07:18:00,
2013-05-17 02:23:00,65.5,48.4,29.91,NE,55,0.0,0.0,54,0.00,,,0.00,WeatherDisplay:10.36,2013-05-17 07:23:00,
2013-05-17 02:28:00,65.5,48.4,29.91,NE,49,0.0,0.0,54,0.00,,,0.00,WeatherDisplay:10.36,2013-05-17 07:28:00,
2013-05-17 02:33:00,65.3,47.7,29.91,NE,47,0.0,0.0,53,0.00,,,0.00,WeatherDisplay:10.36,2013-05-17 07:33:00,
2013-05-17 02:38:00,65.3,47.7,29.91,NE,46,0.0,0.0,53,0.00,,,0.00,WeatherDisplay:10.36,2013-05-17 07:38:00,
2013-05-17 02:43:00,65.3,47.7,29.91,NE,52,0.0,0.0,53,0.00,,,0.00,WeatherDisplay:10.36,2013-05-17 07:43:00,
2013-05-17 02:48:00,65.1,47.6,29.91,NE,52,0.0,0.0,53,0.00,,,0.00,WeatherDisplay:10.36,2013-05-17 07:48:00,
2013-05-17 02:53:00,64.9,46.9,29.91,NE,52,0.0,0.0,52,0.00,,,0.00,WeatherDisplay:10.36,2013-05-17 07:53:00,
2013-05-17 02:58:00,64.8,46.7,29.91,NE,52,0.0,0.0,52,0.00,,,0.00,WeatherDisplay:10.36,2013-05-17 07:58:00,
2013-05-17 03:03:00,64.6,46.6,29.91,NE,52,0.0,0.0,52,0.00,,,0.00,WeatherDisplay:10.36,2013-05-17 08:03:00,
2013-05-17 03:08:00,64.4,46.9,29.91,NE,52,0.0,0.0,53,0.00,,,0.00,WeatherDisplay:10.36,2013-05-17 08:08:00,
2013-05-17 03:13:00,64.2,46.7,29.91,NE,51,0.0,0.0,53,0.00,,,0.00,WeatherDisplay:10.36,2013-05-17 08:13:00,
2013-05-17 03:18:00,64.2,47.2,29.91,NE,52,0.0,0.0,54,0.00,,,0.00,WeatherDisplay:10.36,2013-05-17 08:18:00,
2013-05-17 03:23:00,64.0,47.5,29.91,NE,52,0.0,0.0,55,0.00,,,0.00,WeatherDisplay:10.36,2013-05-17 08:23:00,
2013-05-17 03:28:00,64.0,47.5,29.91,NE,52,0.0,0.0,55,0.00,,,0.00,WeatherDisplay:10.36,2013-05-17 08:28:00,
2013-05-17 03:33:00,64.0,48.0,29.91,NE,52,0.0,0.0,56,0.00,,,0.00,WeatherDisplay:10.36,2013-05-17 08:33:00,
2013-05-17 03:38:00,63.9,48.3,29.91,NE,53,0.0,0.0,57,0.00,,,0.00,WeatherDisplay:10.36,2013-05-17 08:38:00,
2013-05-17 03:43:00,63.9,48.3,29.91,NE,53,0.0,0.0,57,0.00,,,0.00,WeatherDisplay:10.36,2013-05-17 08:43:00,
2013-05-17 03:48:00,63.9,48.8,29.91,NE,52,0.0,0.0,58,0.00,,,0.00,WeatherDisplay:10.36,2013-05-17 08:48:00,
2013-05-17 03:53:00,63.7,49.1,29.91,NNE,27,0.0,0.0,59,0.00,,,0.00,WeatherDisplay:10.36,2013-05-17 08:53:00,
2013-05-17 03:58:00,63.3,49.2,29.91,NNE,27,0.0,0.0,60,0.00,,,0.00,WeatherDisplay:10.36,2013-05-17 08:58:00,
2013-05-17 04:03:00,63.3,49.6,29.91,NNE,27,0.0,0.0,61,0.00,,,0.00,WeatherDisplay:10.36,2013-05-17 09:03:00,
2013-05-17 04:08:00,63.3,50.1,29.91,NNE,27,0.0,0.0,62,0.00,,,0.00,WeatherDisplay:10.36,2013-05-17 09:08:00,
2013-05-17 04:13:00,63.5,50.2,29.91,NNE,27,0.0,0.0,62,0.00,,,0.00,WeatherDisplay:10.36,2013-05-17 09:13:00,
2013-05-17 04:18:00,63.5,50.2,29.91,NNE,27,0.0,0.0,62,0.00,,,0.00,WeatherDisplay:10.36,2013-05-17 09:18:00,
2013-05-17 04:23:00,63.9,50.6,29.91,NNE,27,0.0,0.0,62,0.00,,,0.00,WeatherDisplay:10.36,2013-05-17 09:23:00,
2013-05-17 04:28:00,63.9,50.6,29.91,NNE,27,0.0,0.0,62,0.00,,,0.00,WeatherDisplay:10.36,2013-05-17 09:28:00,
2013-05-17 04:33:00,63.9,51.0,29.91,NNE,27,0.0,0.0,63,0.00,,,0.00,WeatherDisplay:10.36,2013-05-17 09:33:00,
2013-05-17 04:38:00,63.9,51.0,29.91,NNE,27,0.0,0.0,63,0.00,,,0.00,WeatherDisplay:10.36,2013-05-17 09:38:00,
2013-05-17 04:43:00,64.0,51.2,29.91,NNE,27,0.0,0.0,63,0.00,,,0.00,WeatherDisplay:10.36,2013-05-17 09:43:00,
2013-05-17 04:48:00,64.0,51.2,29.91,NNE,27,0.0,0.0,63,0.00,,,0.00,WeatherDisplay:10.36,2013-05-17 09:48:00,
2013-05-17 04:53:00,64.0,51.2,29.91,NNE,27,0.0,0.0,63,0.00,,,0.00,WeatherDisplay:10.36,2013-05-17 09:53:00,
2013-05-17 04:58:00,64.2,51.4,29.91,NNE,27,0.0,0.0,63,0.00,,,0.00,WeatherDisplay:10.36,2013-05-17 09:58:00,
2013-05-17 05:03:00,64.2,51.4,29.91,NNE,27,0.0,0.0,63,0.00,,,0.00,WeatherDisplay:10.36,2013-05-17 10:03:00,
2013-05-17 05:08:00,64.4,51.5,29.91,NNE,27,0.0,0.0,63,0.00,,,0.00,WeatherDisplay:10.36,2013-05-17 10:08:00,
2013-05-17 05:13:00,64.4,51.5,29.91,NNE,27,0.0,0.0,63,0.00,,,0.00,WeatherDisplay:10.36,2013-05-17 10:13:00,
2013-05-17 05:19:00,64.2,52.2,29.91,NNE,29,0.0,0.0,65,0.00,,,0.00,WeatherDisplay:10.36,2013-05-17 10:19:00,
2013-05-17 05:24:00,64.2,52.2,29.91,NNE,29,0.0,0.0,65,0.00,,,0.00,WeatherDisplay:10.36,2013-05-17 10:24:00,
2013-05-17 05:29:00,64.4,52.8,29.91,NNE,29,0.0,0.0,66,0.00,,,0.00,WeatherDisplay:10.36,2013-05-17 10:29:00,
2013-05-17 05:34:00,64.4,53.2,29.91,NNE,28,0.0,0.0,67,0.00,,,0.00,WeatherDisplay:10.36,2013-05-17 10:34:00,
2013-05-17 05:39:00,64.4,53.6,29.91,NNE,29,0.0,0.0,68,0.00,,,0.00,WeatherDisplay:10.36,2013-05-17 10:39:00,
2013-05-17 05:44:00,64.4,53.6,29.91,NNE,29,0.0,0.0,68,0.00,,,0.00,WeatherDisplay:10.36,2013-05-17 10:44:00,
2013-05-17 05:49:00,64.2,54.2,29.91,SW,218,3.5,0.0,70,0.00,,,0.00,WeatherDisplay:10.36,2013-05-17 10:49:00,
2013-05-17 05:54:00,64.0,54.1,29.91,WSW,246,0.0,0.0,70,0.00,,,0.00,WeatherDisplay:10.36,2013-05-17 10:54:00,
2013-05-17 05:59:00,64.2,54.6,29.91,NW,311,0.0,0.0,71,0.00,,,0.00,WeatherDisplay:10.36,2013-05-17 10:59:00,
2013-05-17 06:04:00,64.2,54.6,29.91,NNW,330,0.0,0.0,71,0.00,,,0.00,WeatherDisplay:10.36,2013-05-17 11:04:00,
2013-05-17 06:09:00,64.4,54.8,29.91,NW,320,0.0,0.0,71,0.00,,,0.00,WeatherDisplay:10.36,2013-05-17 11:09:00,
2013-05-17 06:14:00,64.4,54.8,29.91,NW,319,0.0,0.0,71,0.00,,,0.00,WeatherDisplay:10.36,2013-05-17 11:14:00,
2013-05-17 06:19:00,64.4,54.8,29.91,NW,319,0.0,0.0,71,0.00,,,0.00,WeatherDisplay:10.36,2013-05-17 11:19:00,
2013-05-17 06:24:00,64.4,54.8,29.91,NW,323,0.0,0.0,71,0.00,,,0.00,WeatherDisplay:10.36,2013-05-17 11:24:00,
2013-05-17 06:29:00,64.4,54.8,29.91,NNW,336,0.0,0.0,71,0.00,,,0.00,WeatherDisplay:10.36,2013-05-17 11:29:00,
2013-05-17 06:35:00,64.2,54.6,29.94,NW,312,0.0,0.0,71,0.00,,,0.00,WeatherDisplay:10.36,2013-05-17 11:35:00,
2013-05-17 06:40:00,64.2,54.6,29.94,NNW,330,0.0,0.0,71,0.00,,,0.00,WeatherDisplay:10.36,2013-05-17 11:40:00,
2013-05-17 06:45:00,64.0,54.4,29.94,NW,324,0.0,0.0,71,0.00,,,0.00,WeatherDisplay:10.36,2013-05-17 11:45:00,
2013-05-17 06:50:00,64.0,54.8,29.94,NNW,333,0.0,0.0,72,0.00,,,0.00,WeatherDisplay:10.36,2013-05-17 11:50:00,
2013-05-17 06:55:00,64.2,55.0,29.94,NW,308,0.0,0.0,72,0.00,,,0.00,WeatherDisplay:10.36,2013-05-17 11:55:00,
2013-05-17 07:00:00,64.2,55.0,29.94,NW,312,0.0,0.0,72,0.00,,,0.00,WeatherDisplay:10.36,2013-05-17 12:00:00,
2013-05-17 07:05:00,64.4,55.2,29.94,NNW,338,0.0,0.0,72,0.00,,,0.00,WeatherDisplay:10.36,2013-05-17 12:05:00,
2013-05-17 07:10:00,64.4,55.2,29.94,NW,324,0.0,0.0,72,0.00,,,0.00,WeatherDisplay:10.36,2013-05-17 12:10:00,
2013-05-17 07:15:00,64.8,55.5,29.94,NW,326,0.0,0.0,72,0.00,,,0.00,WeatherDisplay:10.36,2013-05-17 12:15:00,
2013-05-17 07:20:00,64.9,55.7,29.94,NW,318,0.0,0.0,72,0.00,,,0.00,WeatherDisplay:10.36,2013-05-17 12:20:00,
2013-05-17 07:25:00,65.1,55.9,29.94,NNW,330,0.0,0.0,72,0.00,,,0.00,WeatherDisplay:10.36,2013-05-17 12:25:00,
2013-05-17 07:30:00,65.1,55.9,29.94,NNW,343,0.0,0.0,72,0.00,,,0.00,WeatherDisplay:10.36,2013-05-17 12:30:00,
2013-05-17 07:35:00,65.5,55.8,29.94,NNW,342,0.0,0.0,71,0.00,,,0.00,WeatherDisplay:10.36,2013-05-17 12:35:00,
2013-05-17 07:41:00,65.5,55.8,29.94,SSW,195,0.0,0.0,71,0.00,,,0.00,WeatherDisplay:10.36,2013-05-17 12:41:00,
2013-05-17 07:46:00,65.7,56.0,29.94,NNE,29,0.0,0.0,71,0.00,,,0.00,WeatherDisplay:10.36,2013-05-17 12:46:00,
2013-05-17 07:51:00,65.7,56.0,29.94,NNE,28,0.0,0.0,71,0.00,,,0.00,WeatherDisplay:10.36,2013-05-17 12:51:00,
2013-05-17 07:56:00,65.8,56.2,29.94,NNE,28,0.0,0.0,71,0.00,,,0.00,WeatherDisplay:10.36,2013-05-17 12:56:00,
2013-05-17 08:01:00,66.0,56.3,29.94,NNE,28,0.0,0.0,71,0.00,,,0.00,WeatherDisplay:10.36,2013-05-17 13:01:00,
2013-05-17 08:06:00,66.2,56.5,29.94,NNE,28,0.0,0.0,71,0.00,,,0.00,WeatherDisplay:10.36,2013-05-17 13:06:00,
2013-05-17 08:11:00,66.4,56.3,29.94,NE,36,0.0,0.0,70,0.00,,,0.00,WeatherDisplay:10.36,2013-05-17 13:11:00,
2013-05-17 08:16:00,66.7,56.6,29.94,NE,55,0.0,0.0,70,0.00,,,0.00,WeatherDisplay:10.36,2013-05-17 13:16:00,
2013-05-17 08:21:00,67.1,56.2,29.94,NNE,32,4.6,0.0,68,0.00,,,0.00,WeatherDisplay:10.36,2013-05-17 13:21:00,
2013-05-17 08:26:00,67.3,55.9,29.94,NNE,32,0.0,0.0,67,0.00,,,0.00,WeatherDisplay:10.36,2013-05-17 13:26:00,
2013-05-17 08:31:00,67.6,56.3,29.94,NNE,32,0.0,0.0,67,0.00,,,0.00,WeatherDisplay:10.36,2013-05-17 13:31:00,
2013-05-17 08:36:00,68.0,56.2,29.94,NNE,31,0.0,0.0,66,0.00,,,0.00,WeatherDisplay:10.36,2013-05-17 13:36:00,
2013-05-17 08:41:00,68.4,56.6,29.94,NNE,32,0.0,0.0,66,0.00,,,0.00,WeatherDisplay:10.36,2013-05-17 13:41:00,
2013-05-17 08:46:00,68.7,56.0,29.94,NNE,27,0.0,0.0,64,0.00,,,0.00,WeatherDisplay:10.36,2013-05-17 13:46:00,
2013-05-17 08:51:00,69.1,56.0,29.94,NNE,28,0.0,0.0,63,0.00,,,0.00,WeatherDisplay:10.36,2013-05-17 13:51:00,
2013-05-17 08:56:00,69.4,56.3,29.94,NNE,30,0.0,0.0,63,0.00,,,0.00,WeatherDisplay:10.36,2013-05-17 13:56:00,
2013-05-17 09:01:00,69.6,55.6,29.94,NNE,28,0.0,0.0,61,0.00,,,0.00,WeatherDisplay:10.36,2013-05-17 14:01:00,
2013-05-17 09:06:00,69.8,55.3,29.94,NNE,31,0.0,0.0,60,0.00,,,0.00,WeatherDisplay:10.36,2013-05-17 14:06:00,
2013-05-17 09:11:00,70.0,55.0,29.94,NNE,27,0.0,0.0,59,0.00,,,0.00,WeatherDisplay:10.36,2013-05-17 14:11:00,
2013-05-17 09:16:00,70.2,55.2,29.94,NNE,27,0.0,0.0,59,0.00,,,0.00,WeatherDisplay:10.36,2013-05-17 14:16:00,
2013-05-17 09:21:00,70.5,55.5,29.94,NNE,27,0.0,0.0,59,0.00,,,0.00,WeatherDisplay:10.36,2013-05-17 14:21:00,
2013-05-17 09:26:00,70.7,54.7,29.94,NNE,27,0.0,0.0,57,0.00,,,0.00,WeatherDisplay:10.36,2013-05-17 14:26:00,
2013-05-17 09:31:00,70.7,54.7,29.94,NNE,27,0.0,0.0,57,0.00,,,0.00,WeatherDisplay:10.36,2013-05-17 14:31:00,
2013-05-17 09:36:00,70.7,54.7,29.94,NNE,27,0.0,0.0,57,0.00,,,0.00,WeatherDisplay:10.36,2013-05-17 14:36:00,
2013-05-17 09:41:00,71.1,54.6,29.94,NE,56,3.6,4.0,56,0.00,,,0.00,WeatherDisplay:10.36,2013-05-17 14:41:00,
2013-05-17 09:46:00,71.2,54.7,29.94,NNE,29,0.0,0.0,56,0.00,,,0.00,WeatherDisplay:10.36,2013-05-17 14:46:00,
2013-05-17 09:51:00,71.2,54.7,29.94,North,351,3.5,0.0,56,0.00,,,0.00,WeatherDisplay:10.36,2013-05-17 14:51:00,
2013-05-17 09:56:00,71.4,54.9,29.94,North,351,0.0,0.0,56,0.00,,,0.00,WeatherDisplay:10.36,2013-05-17 14:56:00,
2013-05-17 10:01:00,71.8,55.2,29.94,North,351,0.0,0.0,56,0.00,,,0.00,WeatherDisplay:10.36,2013-05-17 15:01:00,
2013-05-17 10:06:00,72.1,55.1,30.74,North,351,0.0,0.0,55,0.00,,,0.00,WeatherDisplay:10.36,2013-05-17 15:06:00,
2013-05-17 10:11:00,72.3,54.7,30.74,NNE,27,0.0,0.0,54,0.00,,,0.00,WeatherDisplay:10.36,2013-05-17 15:11:00,
2013-05-17 10:16:00,72.3,54.7,30.74,NNE,27,0.0,0.0,54,0.00,,,0.00,WeatherDisplay:10.36,2013-05-17 15:16:00,
2013-05-17 10:21:00,72.7,55.6,29.94,NNE,27,0.0,0.0,55,0.00,,,0.00,WeatherDisplay:10.36,2013-05-17 15:21:00,
2013-05-17 10:26:00,73.2,56.1,29.94,NE,51,3.5,0.0,55,0.00,,,0.00,WeatherDisplay:10.36,2013-05-17 15:26:00,
2013-05-17 10:31:00,73.8,56.6,29.94,ENE,59,0.0,0.0,55,0.00,,,0.00,WeatherDisplay:10.36,2013-05-17 15:31:00,
2013-05-17 10:36:00,74.1,56.4,29.94,NNE,27,2.7,0.0,54,0.00,,,0.00,WeatherDisplay:10.36,2013-05-17 15:36:00,
2013-05-17 10:41:00,74.5,55.7,29.94,ENE,67,3.6,0.0,52,0.00,,,0.00,WeatherDisplay:10.36,2013-05-17 15:41:00,
2013-05-17 10:46:00,74.7,55.9,29.94,ENE,67,5.8,5.8,52,0.00,,,0.00,WeatherDisplay:10.36,2013-05-17 15:46:00,
2013-05-17 10:51:00,75.0,55.7,29.94,NE,51,3.1,0.0,51,0.00,,,0.00,WeatherDisplay:10.36,2013-05-17 15:51:00,
2013-05-17 10:56:00,75.0,55.1,29.94,ENE,77,3.1,0.0,50,0.00,,,0.00,WeatherDisplay:10.36,2013-05-17 15:56:00,
2013-05-17 11:01:00,75.0,54.6,29.94,NNE,32,0.0,0.0,49,0.00,,,0.00,WeatherDisplay:10.36,2013-05-17 16:01:00,
2013-05-17 11:06:00,74.5,54.1,29.94,NNE,27,0.0,0.0,49,0.00,,,0.00,WeatherDisplay:10.36,2013-05-17 16:06:00,
2013-05-17 11:11:00,74.5,54.6,29.94,NNE,29,0.0,0.0,50,0.00,,,0.00,WeatherDisplay:10.36,2013-05-17 16:11:00,
2013-05-17 11:16:00,74.3,53.9,29.94,NNE,27,4.6,0.0,49,0.00,,,0.00,WeatherDisplay:10.36,2013-05-17 16:16:00,
2013-05-17 11:21:00,74.1,54.3,29.94,NNE,27,3.5,0.0,50,0.00,,,0.00,WeatherDisplay:10.36,2013-05-17 16:21:00,
2013-05-17 11:26:00,73.9,54.1,29.94,NNE,32,0.0,0.0,50,0.00,,,0.00,WeatherDisplay:10.36,2013-05-17 16:26:00,
2013-05-17 11:31:00,73.9,54.7,29.94,NNE,31,0.0,0.0,51,0.00,,,0.00,WeatherDisplay:10.36,2013-05-17 16:31:00,
2013-05-17 11:36:00,74.1,54.8,29.94,NNE,30,0.0,0.0,51,0.00,,,0.00,WeatherDisplay:10.36,2013-05-17 16:36:00,
2013-05-17 11:41:00,74.5,54.6,29.94,NNE,27,0.0,0.0,50,0.00,,,0.00,WeatherDisplay:10.36,2013-05-17 16:41:00,
2013-05-17 11:47:00,74.7,54.2,29.94,NNE,28,0.0,0.0,49,0.00,,,0.00,WeatherDisplay:10.36,2013-05-17 16:47:00,
2013-05-17 11:52:00,74.8,54.4,29.94,NE,36,0.0,0.0,49,0.00,,,0.00,WeatherDisplay:10.36,2013-05-17 16:52:00,
2013-05-17 11:57:00,75.0,55.1,29.94,NE,35,0.0,0.0,50,0.00,,,0.00,WeatherDisplay:10.36,2013-05-17 16:57:00,
2013-05-17 12:02:00,75.2,55.3,29.94,NE,50,3.5,3.5,50,0.00,,,0.00,WeatherDisplay:10.36,2013-05-17 17:02:00,
2013-05-17 12:07:00,75.4,54.9,29.94,NNE,28,5.8,0.0,49,0.00,,,0.00,WeatherDisplay:10.36,2013-05-17 17:07:00,
2013-05-17 12:12:00,75.7,55.2,29.94,NNE,28,2.7,2.7,49,0.00,,,0.00,WeatherDisplay:10.36,2013-05-17 17:12:00,
2013-05-17 12:17:00,76.1,55.0,29.94,NNE,29,0.0,0.0,48,0.00,,,0.00,WeatherDisplay:10.36,2013-05-17 17:17:00,
2013-05-17 12:22:00,76.3,55.1,29.94,NNE,28,3.5,0.0,48,0.00,,,0.00,WeatherDisplay:10.36,2013-05-17 17:22:00,
2013-05-17 12:27:00,76.6,54.3,29.94,NNE,29,2.7,2.7,46,0.00,,,0.00,WeatherDisplay:10.36,2013-05-17 17:27:00,
2013-05-17 12:32:00,76.6,54.3,29.94,NE,37,0.0,0.0,46,0.00,,,0.00,WeatherDisplay:10.36,2013-05-17 17:32:00,
2013-05-17 12:37:00,76.6,54.3,29.94,NNE,29,2.7,0.0,46,0.00,,,0.00,WeatherDisplay:10.36,2013-05-17 17:37:00,
2013-05-17 12:42:00,76.3,54.0,29.94,NNE,29,0.0,0.0,46,0.00,,,0.00,WeatherDisplay:10.36,2013-05-17 17:42:00,
2013-05-17 12:47:00,75.9,54.2,29.94,NNE,29,0.0,0.0,47,0.00,,,0.00,WeatherDisplay:10.36,2013-05-17 17:47:00,
2013-05-17 12:52:00,75.9,55.4,29.94,NNE,27,0.0,0.0,49,0.00,,,0.00,WeatherDisplay:10.36,2013-05-17 17:52:00,
2013-05-17 12:57:00,76.1,55.5,29.94,NNE,28,3.6,3.6,49,0.00,,,0.00,WeatherDisplay:10.36,2013-05-17 17:57:00,
2013-05-17 13:02:00,75.9,54.8,29.94,NNE,28,0.0,0.0,48,0.00,,,0.00,WeatherDisplay:10.36,2013-05-17 18:02:00,
2013-05-17 13:07:00,75.7,55.2,29.91,NNE,33,0.0,0.0,49,0.00,,,0.00,WeatherDisplay:10.36,2013-05-17 18:07:00,
2013-05-17 13:12:00,75.9,55.4,29.91,NNE,31,0.0,0.0,49,0.00,,,0.00,WeatherDisplay:10.36,2013-05-17 18:12:00,
2013-05-17 13:17:00,75.9,55.4,29.91,NNE,32,0.0,0.0,49,0.00,,,0.00,WeatherDisplay:10.36,2013-05-17 18:17:00,
2013-05-17 13:22:00,75.7,55.2,29.91,NNE,27,0.0,0.0,49,0.00,,,0.00,WeatherDisplay:10.36,2013-05-17 18:22:00,
2013-05-17 13:27:00,75.6,55.6,29.91,NNE,27,0.0,0.0,50,0.00,,,0.00,WeatherDisplay:10.36,2013-05-17 18:27:00,
2013-05-17 13:32:00,75.9,56.5,29.91,NNE,31,0.0,3.1,51,0.00,,,0.00,WeatherDisplay:10.36,2013-05-17 18:32:00,
2013-05-17 13:37:00,76.3,56.3,29.91,NNE,27,4.0,4.0,50,0.00,,,0.00,WeatherDisplay:10.36,2013-05-17 18:37:00,
2013-05-17 13:42:00,76.6,56.0,29.91,ENE,67,0.0,0.0,49,0.00,,,0.00,WeatherDisplay:10.36,2013-05-17 18:42:00,
2013-05-17 13:47:00,77.2,56.5,29.91,NNE,31,0.0,2.7,49,0.00,,,0.00,WeatherDisplay:10.36,2013-05-17 18:47:00,
2013-05-17 13:52:00,77.5,56.3,29.91,NNE,29,4.0,4.0,48,0.00,,,0.00,WeatherDisplay:10.36,2013-05-17 18:52:00,
2013-05-17 13:57:00,77.7,55.3,29.91,SSE,161,3.1,0.0,46,0.00,,,0.00,WeatherDisplay:10.36,2013-05-17 18:57:00,
2013-05-17 14:02:00,77.5,55.1,29.91,NNE,30,3.6,0.0,46,0.00,,,0.00,WeatherDisplay:10.36,2013-05-17 19:02:00,
2013-05-17 14:07:00,77.2,54.2,29.91,NNE,30,0.0,0.0,45,0.00,,,0.00,WeatherDisplay:10.36,2013-05-17 19:07:00,
2013-05-17 14:12:00,77.0,54.6,29.91,NNE,32,0.0,0.0,46,0.00,,,0.00,WeatherDisplay:10.36,2013-05-17 19:12:00,
2013-05-17 14:17:00,76.6,54.3,29.91,NNE,31,3.5,0.0,46,0.00,,,0.00,WeatherDisplay:10.36,2013-05-17 19:17:00,
2013-05-17 14:22:00,76.5,54.7,29.91,NNE,32,0.0,0.0,47,0.00,,,0.00,WeatherDisplay:10.36,2013-05-17 19:22:00,
2013-05-17 14:28:00,76.5,54.7,29.91,NNE,27,3.1,3.1,47,0.00,,,0.00,WeatherDisplay:10.36,2013-05-17 19:28:00,
2013-05-17 14:33:00,76.3,54.6,29.91,NE,41,4.9,4.9,47,0.00,,,0.00,WeatherDisplay:10.36,2013-05-17 19:33:00,
2013-05-17 14:38:00,76.3,55.1,29.91,NE,48,3.5,0.0,48,0.00,,,0.00,WeatherDisplay:10.36,2013-05-17 19:38:00,
2013-05-17 14:43:00,76.1,55.0,29.91,NNE,33,0.0,0.0,48,0.00,,,0.00,WeatherDisplay:10.36,2013-05-17 19:43:00,
2013-05-17 14:48:00,76.1,55.5,29.91,NE,34,0.0,0.0,49,0.00,,,0.00,WeatherDisplay:10.36,2013-05-17 19:48:00,
2013-05-17 14:53:00,75.9,55.4,29.91,East,80,0.0,0.0,49,0.00,,,0.00,WeatherDisplay:10.36,2013-05-17 19:53:00,
2013-05-17 14:58:00,75.9,55.4,29.91,NE,49,0.0,0.0,49,0.00,,,0.00,WeatherDisplay:10.36,2013-05-17 19:58:00,
2013-05-17 15:03:00,75.9,55.9,29.91,NE,48,0.0,0.0,50,0.00,,,0.00,WeatherDisplay:10.36,2013-05-17 20:03:00,
2013-05-17 15:08:00,75.7,56.3,29.91,NE,56,0.0,0.0,51,0.00,,,0.00,WeatherDisplay:10.36,2013-05-17 20:08:00,
2013-05-17 15:13:00,75.7,56.3,29.91,ENE,61,0.0,0.0,51,0.00,,,0.00,WeatherDisplay:10.36,2013-05-17 20:13:00,
2013-05-17 15:18:00,75.6,56.2,29.91,ENE,60,0.0,0.0,51,0.00,,,0.00,WeatherDisplay:10.36,2013-05-17 20:18:00,
2013-05-17 15:23:00,75.6,56.2,29.91,NE,56,0.0,0.0,51,0.00,,,0.00,WeatherDisplay:10.36,2013-05-17 20:23:00,
2013-05-17 15:28:00,75.6,56.7,29.91,East,84,0.0,0.0,52,0.00,,,0.00,WeatherDisplay:10.36,2013-05-17 20:28:00,
2013-05-17 15:33:00,75.4,56.5,29.91,ENE,76,0.0,0.0,52,0.00,,,0.00,WeatherDisplay:10.36,2013-05-17 20:33:00,
2013-05-17 15:38:00,75.6,57.2,29.91,East,94,0.0,0.0,53,0.00,,,0.00,WeatherDisplay:10.36,2013-05-17 20:38:00,
2013-05-17 15:43:00,75.9,57.6,29.91,NE,45,0.0,0.0,53,0.00,,,0.00,WeatherDisplay:10.36,2013-05-17 20:43:00,
2013-05-17 15:48:00,75.9,57.6,29.91,NE,55,0.0,2.7,53,0.00,,,0.00,WeatherDisplay:10.36,2013-05-17 20:48:00,
2013-05-17 15:53:00,75.9,57.0,29.91,ENE,58,0.0,0.0,52,0.00,,,0.00,WeatherDisplay:10.36,2013-05-17 20:53:00,
2013-05-17 15:58:00,75.7,56.9,29.91,ENE,78,0.0,0.0,52,0.00,,,0.00,WeatherDisplay:10.36,2013-05-17 20:58:00,
2013-05-17 16:03:00,75.6,56.7,29.91,East,85,4.0,4.0,52,0.00,,,0.00,WeatherDisplay:10.36,2013-05-17 21:03:00,
2013-05-17 16:08:00,75.4,56.5,29.91,ENE,65,0.0,0.0,52,0.00,,,0.00,WeatherDisplay:10.36,2013-05-17 21:08:00,
2013-05-17 16:13:00,75.2,56.9,29.91,ESE,102,0.0,0.0,53,0.00,,,0.00,WeatherDisplay:10.36,2013-05-17 21:13:00,
2013-05-17 16:18:00,75.0,56.7,29.91,ESE,102,0.0,0.0,53,0.00,,,0.00,WeatherDisplay:10.36,2013-05-17 21:18:00,
2013-05-17 16:23:00,74.7,56.9,29.91,East,94,0.0,0.0,54,0.00,,,0.00,WeatherDisplay:10.36,2013-05-17 21:23:00,
2013-05-17 16:28:00,74.7,57.4,29.91,East,94,0.0,0.0,55,0.00,,,0.00,WeatherDisplay:10.36,2013-05-17 21:28:00,
2013-05-17 16:33:00,74.8,58.1,29.91,ESE,117,0.0,0.0,56,0.00,,,0.00,WeatherDisplay:10.36,2013-05-17 21:33:00,
2013-05-17 16:38:00,75.0,58.8,29.91,East,99,0.0,0.0,57,0.00,,,0.00,WeatherDisplay:10.36,2013-05-17 21:38:00,
2013-05-17 16:43:00,75.0,58.3,29.91,East,80,0.0,0.0,56,0.00,,,0.00,WeatherDisplay:10.36,2013-05-17 21:43:00,
2013-05-17 16:48:00,75.0,58.3,29.91,East,93,0.0,0.0,56,0.00,,,0.00,WeatherDisplay:10.36,2013-05-17 21:48:00,
2013-05-17 16:53:00,75.0,58.3,29.91,ESE,106,0.0,0.0,56,0.00,,,0.00,WeatherDisplay:10.36,2013-05-17 21:53:00,
2013-05-17 16:58:00,74.8,58.1,29.91,SSW,195,4.9,0.0,56,0.00,,,0.00,WeatherDisplay:10.36,2013-05-17 21:58:00,
2013-05-17 17:03:00,74.7,58.4,29.91,East,92,0.0,0.0,57,0.00,,,0.00,WeatherDisplay:10.36,2013-05-17 22:03:00,
2013-05-17 17:08:00,74.7,58.4,29.91,East,82,0.0,0.0,57,0.00,,,0.00,WeatherDisplay:10.36,2013-05-17 22:08:00,
2013-05-17 17:13:00,74.5,58.7,29.91,East,80,0.0,0.0,58,0.00,,,0.00,WeatherDisplay:10.36,2013-05-17 22:13:00,
2013-05-17 17:18:00,74.5,58.7,29.91,East,88,0.0,0.0,58,0.00,,,0.00,WeatherDisplay:10.36,2013-05-17 22:18:00,
2013-05-17 17:23:00,74.7,59.4,29.91,East,80,0.0,0.0,59,0.00,,,0.00,WeatherDisplay:10.36,2013-05-17 22:23:00,
2013-05-17 17:28:00,74.7,59.4,29.91,East,82,0.0,0.0,59,0.00,,,0.00,WeatherDisplay:10.36,2013-05-17 22:28:00,
2013-05-17 17:33:00,74.8,60.0,29.91,East,80,0.0,0.0,60,0.00,,,0.00,WeatherDisplay:10.36,2013-05-17 22:33:00,
2013-05-17 17:38:00,74.8,60.0,29.88,ESE,108,0.0,0.0,60,0.00,,,0.00,WeatherDisplay:10.36,2013-05-17 22:38:00,
2013-05-17 17:43:00,75.0,60.2,29.88,East,84,0.0,0.0,60,0.00,,,0.00,WeatherDisplay:10.36,2013-05-17 22:43:00,
2013-05-17 17:48:00,75.2,60.4,29.88,ENE,72,0.0,0.0,60,0.00,,,0.00,WeatherDisplay:10.36,2013-05-17 22:48:00,
2013-05-17 17:53:00,75.4,60.5,29.91,ENE,78,0.0,0.0,60,0.00,,,0.00,WeatherDisplay:10.36,2013-05-17 22:53:00,
2013-05-17 17:58:00,75.4,60.1,29.91,ENE,59,0.0,0.0,59,0.00,,,0.00,WeatherDisplay:10.36,2013-05-17 22:58:00,
2013-05-17 18:03:00,75.6,60.2,29.91,ENE,59,0.0,0.0,59,0.00,,,0.00,WeatherDisplay:10.36,2013-05-17 23:03:00,
2013-05-17 18:08:00,75.6,59.7,29.88,NE,53,0.0,0.0,58,0.00,,,0.00,WeatherDisplay:10.36,2013-05-17 23:08:00,
2013-05-17 18:13:00,75.6,59.7,29.88,NNE,32,0.0,0.0,58,0.00,,,0.00,WeatherDisplay:10.36,2013-05-17 23:13:00,
2013-05-17 18:18:00,75.6,59.3,29.88,NNE,30,0.0,0.0,57,0.00,,,0.00,WeatherDisplay:10.36,2013-05-17 23:18:00,
2013-05-17 18:23:00,75.6,59.3,29.91,NNE,30,0.0,0.0,57,0.00,,,0.00,WeatherDisplay:10.36,2013-05-17 23:23:00,
2013-05-17 18:28:00,75.6,58.8,29.91,NNE,30,0.0,0.0,56,0.00,,,0.00,WeatherDisplay:10.36,2013-05-17 23:28:00,
2013-05-17 18:33:00,75.4,58.6,29.91,NNE,30,0.0,0.0,56,0.00,,,0.00,WeatherDisplay:10.36,2013-05-17 23:33:00,
2013-05-17 18:38:00,75.2,58.4,29.88,NNE,30,0.0,0.0,56,0.00,,,0.00,WeatherDisplay:10.36,2013-05-17 23:38:00,
2013-05-17 18:43:00,75.0,58.3,29.88,NNE,27,0.0,0.0,56,0.00,,,0.00,WeatherDisplay:10.36,2013-05-17 23:43:00,
2013-05-17 18:48:00,74.8,58.6,29.88,NNE,27,0.0,0.0,57,0.00,,,0.00,WeatherDisplay:10.36,2013-05-17 23:48:00,
2013-05-17 18:53:00,74.7,58.9,29.91,NNE,27,0.0,0.0,58,0.00,,,0.00,WeatherDisplay:10.36,2013-05-17 23:53:00,
2013-05-17 18:58:00,74.7,58.9,29.91,ENE,76,0.0,0.0,58,0.00,,,0.00,WeatherDisplay:10.36,2013-05-17 23:58:00,
2013-05-17 19:03:00,74.8,59.1,29.91,ENE,75,0.0,0.0,58,0.00,,,0.00,WeatherDisplay:10.36,2013-05-18 00:03:00,
2013-05-17 19:08:00,74.8,58.6,29.91,East,79,3.6,0.0,57,0.00,,,0.00,WeatherDisplay:10.36,2013-05-18 00:08:00,
2013-05-17 19:13:00,74.8,58.6,29.91,ENE,67,0.0,0.0,57,0.00,,,0.00,WeatherDisplay:10.36,2013-05-18 00:13:00,
2013-05-17 19:18:00,74.8,58.6,29.91,ENE,65,0.0,0.0,57,0.00,,,0.00,WeatherDisplay:10.36,2013-05-18 00:18:00,
2013-05-17 19:23:00,74.8,58.1,29.91,ENE,64,0.0,0.0,56,0.00,,,0.00,WeatherDisplay:10.36,2013-05-18 00:23:00,
2013-05-17 19:28:00,74.8,58.1,29.91,NE,46,0.0,0.0,56,0.00,,,0.00,WeatherDisplay:10.36,2013-05-18 00:28:00,
2013-05-17 19:33:00,74.7,58.4,29.91,ENE,64,0.0,0.0,57,0.00,,,0.00,WeatherDisplay:10.36,2013-05-18 00:33:00,
2013-05-17 19:38:00,74.5,58.2,29.91,ENE,62,0.0,0.0,57,0.00,,,0.00,WeatherDisplay:10.36,2013-05-18 00:38:00,
2013-05-17 19:43:00,74.5,58.7,29.91,ENE,59,0.0,0.0,58,0.00,,,0.00,WeatherDisplay:10.36,2013-05-18 00:43:00,
2013-05-17 19:48:00,74.3,58.6,29.91,East,95,0.0,0.0,58,0.00,,,0.00,WeatherDisplay:10.36,2013-05-18 00:48:00,
2013-05-17 19:53:00,74.3,58.6,29.91,East,98,0.0,0.0,58,0.00,,,0.00,WeatherDisplay:10.36,2013-05-18 00:53:00,
2013-05-17 19:58:00,74.1,58.4,29.91,East,90,0.0,0.0,58,0.00,,,0.00,WeatherDisplay:10.36,2013-05-18 00:58:00,
2013-05-17 20:03:00,74.1,58.9,29.91,East,91,0.0,0.0,59,0.00,,,0.00,WeatherDisplay:10.36,2013-05-18 01:03:00,
2013-05-17 20:08:00,73.9,58.7,29.91,NE,46,0.0,0.0,59,0.00,,,0.00,WeatherDisplay:10.36,2013-05-18 01:08:00,
2013-05-17 20:13:00,73.4,58.2,29.91,NE,45,0.0,0.0,59,0.00,,,0.00,WeatherDisplay:10.36,2013-05-18 01:13:00,
2013-05-17 20:18:00,73.2,58.0,29.91,NE,46,0.0,0.0,59,0.00,,,0.00,WeatherDisplay:10.36,2013-05-18 01:18:00,
2013-05-17 20:23:00,73.0,58.3,29.91,NE,45,0.0,0.0,60,0.00,,,0.00,WeatherDisplay:10.36,2013-05-18 01:23:00,
2013-05-17 20:28:00,72.7,58.0,29.91,NE,46,0.0,0.0,60,0.00,,,0.00,WeatherDisplay:10.36,2013-05-18 01:28:00,
2013-05-17 20:33:00,72.3,58.1,29.91,NE,45,0.0,0.0,61,0.00,,,0.00,WeatherDisplay:10.36,2013-05-18 01:33:00,
2013-05-17 20:38:00,72.1,58.4,29.91,NE,46,0.0,0.0,62,0.00,,,0.00,WeatherDisplay:10.36,2013-05-18 01:38:00,
2013-05-17 20:43:00,72.0,58.2,29.91,NE,46,0.0,0.0,62,0.00,,,0.00,WeatherDisplay:10.36,2013-05-18 01:43:00,
2013-05-17 20:48:00,72.0,58.2,29.91,NE,46,0.0,0.0,62,0.00,,,0.00,WeatherDisplay:10.36,2013-05-18 01:48:00,
2013-05-17 20:53:00,71.8,58.1,29.91,NE,46,0.0,0.0,62,0.00,,,0.00,WeatherDisplay:10.36,2013-05-18 01:53:00,
2013-05-17 20:58:00,71.6,57.9,29.91,NE,46,0.0,0.0,62,0.00,,,0.00,WeatherDisplay:10.36,2013-05-18 01:58:00,
2013-05-17 21:03:00,71.6,58.3,29.91,NE,46,0.0,0.0,63,0.00,,,0.00,WeatherDisplay:10.36,2013-05-18 02:03:00,
2013-05-17 21:08:00,71.6,58.3,29.94,NE,45,0.0,0.0,63,0.00,,,0.00,WeatherDisplay:10.36,2013-05-18 02:08:00,
2013-05-17 21:13:00,71.4,58.2,29.94,NE,46,0.0,0.0,63,0.00,,,0.00,WeatherDisplay:10.36,2013-05-18 02:13:00,
2013-05-17 21:18:00,71.4,58.2,29.94,NE,46,0.0,0.0,63,0.00,,,0.00,WeatherDisplay:10.36,2013-05-18 02:18:00,
2013-05-17 21:23:00,71.2,58.0,29.94,NE,46,0.0,0.0,63,0.00,,,0.00,WeatherDisplay:10.36,2013-05-18 02:23:00,
2013-05-17 21:28:00,71.2,58.0,29.94,NE,46,0.0,0.0,63,0.00,,,0.00,WeatherDisplay:10.36,2013-05-18 02:28:00,
2013-05-17 21:33:00,71.2,58.4,29.94,NE,46,0.0,0.0,64,0.00,,,0.00,WeatherDisplay:10.36,2013-05-18 02:33:00,
2013-05-17 21:38:00,71.1,58.3,29.94,NE,46,0.0,0.0,64,0.00,,,0.00,WeatherDisplay:10.36,2013-05-18 02:38:00,
2013-05-17 21:43:00,70.9,58.5,29.94,NE,46,0.0,0.0,65,0.00,,,0.00,WeatherDisplay:10.36,2013-05-18 02:43:00,
2013-05-17 21:48:00,70.9,58.5,29.94,NE,46,0.0,0.0,65,0.00,,,0.00,WeatherDisplay:10.36,2013-05-18 02:48:00,
2013-05-17 21:53:00,70.9,59.0,29.94,NE,45,0.0,0.0,66,0.00,,,0.00,WeatherDisplay:10.36,2013-05-18 02:53:00,
2013-05-17 21:58:00,70.7,59.2,29.94,NE,45,0.0,0.0,67,0.00,,,0.00,WeatherDisplay:10.36,2013-05-18 02:58:00,
2013-05-17 22:03:00,70.7,59.6,29.94,NE,46,0.0,0.0,68,0.00,,,0.00,WeatherDisplay:10.36,2013-05-18 03:03:00,
2013-05-17 22:08:00,70.7,59.6,29.94,NE,45,0.0,0.0,68,0.00,,,0.00,WeatherDisplay:10.36,2013-05-18 03:08:00,
2013-05-17 22:13:00,70.5,59.4,29.94,NE,45,0.0,0.0,68,0.00,,,0.00,WeatherDisplay:10.36,2013-05-18 03:13:00,
2013-05-17 22:18:00,70.3,59.7,29.94,NE,45,0.0,0.0,69,0.00,,,0.00,WeatherDisplay:10.36,2013-05-18 03:18:00,
2013-05-17 22:23:00,70.3,59.7,29.94,NE,45,0.0,0.0,69,0.00,,,0.00,WeatherDisplay:10.36,2013-05-18 03:23:00,
2013-05-17 22:28:00,70.3,59.7,29.94,NE,44,0.0,0.0,69,0.00,,,0.00,WeatherDisplay:10.36,2013-05-18 03:28:00,
2013-05-17 22:33:00,70.3,59.7,29.94,NE,44,0.0,0.0,69,0.00,,,0.00,WeatherDisplay:10.36,2013-05-18 03:33:00,
2013-05-17 22:38:00,70.2,59.5,29.94,NE,45,0.0,0.0,69,0.00,,,0.00,WeatherDisplay:10.36,2013-05-18 03:38:00,
2013-05-17 22:43:00,70.0,59.3,29.94,NE,45,0.0,0.0,69,0.00,,,0.00,WeatherDisplay:10.36,2013-05-18 03:43:00,
2013-05-17 22:48:00,70.0,59.3,29.94,NE,45,0.0,0.0,69,0.00,,,0.00,WeatherDisplay:10.36,2013-05-18 03:48:00,
2013-05-17 22:53:00,69.8,59.2,29.94,NE,45,0.0,0.0,69,0.00,,,0.00,WeatherDisplay:10.36,2013-05-18 03:53:00,
2013-05-17 22:58:00,69.8,59.6,29.94,NE,45,0.0,0.0,70,0.00,,,0.00,WeatherDisplay:10.36,2013-05-18 03:58:00,
2013-05-17 23:01:00,69.8,59.6,29.94,NE,44,0.0,0.0,70,0.00,,,0.00,WeatherDisplay:10.36,2013-05-18 04:01:00,
2013-05-17 23:02:00,69.8,59.6,29.94,NE,45,0.0,0.0,70,0.00,,,0.00,WeatherDisplay:10.36,2013-05-18 04:02:00,
2013-05-17 23:03:00,69.8,59.6,29.94,NE,45,0.0,0.0,70,0.00,,,0.00,WeatherDisplay:10.36,2013-05-18 04:03:00,
2013-05-17 23:04:00,69.8,59.6,29.94,NE,45,0.0,0.0,70,0.00,,,0.00,WeatherDisplay:10.36,2013-05-18 04:04:00,
2013-05-17 23:09:00,69.6,59.4,29.94,NE,45,0.0,0.0,70,0.00,,,0.00,WeatherDisplay:10.36,2013-05-18 04:09:00,
2013-05-17 23:14:00,69.6,59.4,29.94,NE,44,0.0,0.0,70,0.00,,,0.00,WeatherDisplay:10.36,2013-05-18 04:14:00,
2013-05-17 23:16:00,69.6,59.4,29.94,NE,45,0.0,0.0,70,0.00,,,0.00,WeatherDisplay:10.36,2013-05-18 04:16:00,
2013-05-17 23:21:00,69.6,59.4,29.94,NE,45,0.0,0.0,70,0.00,,,0.00,WeatherDisplay:10.36,2013-05-18 04:21:00,
2013-05-17 23:26:00,69.6,59.4,29.94,NE,45,0.0,0.0,70,0.00,,,0.00,WeatherDisplay:10.36,2013-05-18 04:26:00,
2013-05-17 23:31:00,69.6,59.4,29.94,NE,45,0.0,0.0,70,0.00,,,0.00,WeatherDisplay:10.36,2013-05-18 04:31:00,
2013-05-17 23:36:00,69.4,59.2,29.94,NE,44,0.0,0.0,70,0.00,,,0.00,WeatherDisplay:10.36,2013-05-18 04:36:00,
2013-05-17 23:41:00,69.4,59.2,29.94,NE,45,0.0,0.0,70,0.00,,,0.00,WeatherDisplay:10.36,2013-05-18 04:41:00,
2013-05-17 23:46:00,69.4,59.2,29.94,NE,45,0.0,0.0,70,0.00,,,0.00,WeatherDisplay:10.36,2013-05-18 04:46:00,
2013-05-17 23:51:00,69.3,59.1,29.94,NE,45,0.0,0.0,70,0.00,,,0.00,WeatherDisplay:10.36,2013-05-18 04:51:00,
2013-05-17 23:56:00,69.3,59.1,29.94,NE,44,0.0,0.0,70,0.00,,,0.00,WeatherDisplay:10.36,2013-05-18 04:56:00,